Flag for Canada Weather past 2 weeks in Wood Buffalo, Alberta, Canada

Now
52 °F

Cool.


Feels Like: 49 °F
Forecast: 40 / 58 °F
Wind: 8 mph from West

Location: Fort McMurray CS

Current Time: Sep 1, 2015 at 6:22:52 PM

Latest Report: Sep 1, 2015 at 5:00 PM


Visibility: N/A

Pressure: 29.62 "Hg

Humidity: 82%

Dew point: 46 °F

Location of Wood BuffaloLocation

Historic Weather in Wood Buffalo — Graph

°F

Wood Buffalo temperature yesterday

Maximum temperature yesterday: 72 °F (at 4:00 PM)
Minimum temperature yesterday: 39 °F (at 5:00 AM)
Average temperature yesterday: 56 °F

Past Weeks' High & Low Weather Summary

 TemperatureHumidityPressure
High80 °F (Aug 30, 3:00 PM)100% (Aug 23, 5:00 AM)30.13 "Hg (Aug 23, 5:00 AM)
Low32 °F (Aug 23, 2:00 AM)24% (Aug 23, 4:00 PM)29.29 "Hg (Aug 30, 8:00 AM)
Average59 °F65%29.74 "Hg
* Reported Aug 17 5:00 PM — Sep 1 4:00 PM, Wood Buffalo, Weather by CustomWeather, © 2015

Note: Actual official high and low records may vary slightly from our data, if they occured in-between our weather recording intervals... More about our weather records

Advertising

Wood Buffalo weather history for previous 24 hours

 ConditionsComfort  
Time TempWeatherWind HumidityBarometerVisibility
4:00 PM
Tue, Sep 1
51 °FCool.12 mph80%29.61 "HgN/A
3:00 PM49 °FCool.16 mph92%29.58 "HgN/A
2:00 PM47 °FCool.21 mph93%29.52 "HgN/A
1:00 PM49 °FCool.10 mph91%29.48 "HgN/A
12:00 PM50 °FCool.12 mph93%29.48 "HgN/A
11:00 AM50 °FCool.5 mph92%29.48 "HgN/A
10:00 AM49 °FCool.7 mph93%29.49 "HgN/A
9:00 AM48 °FCool.3 mph95%29.53 "HgN/A
8:00 AM50 °FCool.2 mph93%29.53 "HgN/A
7:00 AM50 °FCool.7 mph89%29.51 "HgN/A
6:00 AM47 °FCool.6 mph85%29.51 "HgN/A
5:00 AM43 °FQuite cool.2 mph94%29.52 "HgN/A
4:00 AM39 °FChilly.1 mph85%29.51 "HgN/A
3:00 AM41 °FQuite cool.2 mph88%29.53 "HgN/A
2:00 AM44 °FQuite cool.5 mph81%29.52 "HgN/A
1:00 AM50 °FCool.1 mph68%29.52 "HgN/A
12:00 AM49 °FCool.8 mph69%29.53 "HgN/A
11:00 PM
Mon, Aug 31
49 °FCool.8 mph67%29.52 "HgN/A
10:00 PM51 °FCool.7 mph61%29.51 "HgN/A
9:00 PM57 °FRefreshingly cool.6 mph47%29.51 "HgN/A
8:00 PM63 °FMild.8 mph35%29.50 "HgN/A
7:00 PM69 °FMild.13 mph28%29.49 "HgN/A
6:00 PM70 °FMild.14 mph29%29.48 "HgN/A
Weather by CustomWeather, © 2015

See weather overviewHow to use our weather pages